Felix-Klein-Gymnasium, Gttingen, 150m NN
Wetterdaten: aktuell Samstag, 16.12.2017 15:30
Datum Zeit Temp. A. Feuchte A. Luftdruck Regen Wind Richtung Richtung Sonnenschein Taupunkt Windchill Windben
16.12.2017 15:30 3,4 C 86 % 1007,7 hPa 0,0 mm 8,4 km/h (2 Bft) W-NW 289 0 min 1,3 C 1,1 C 16,1 km/h (3 Bft)
16.12.2017 15:15 3,4 C 87 % 1007,4 hPa 0,0 mm 9,1 km/h (2 Bft) W 279 0 min 1,4 C 1,0 C 19,3 km/h (3 Bft)
16.12.2017 15:00 3,3 C 87 % 1007,3 hPa 0,0 mm 7,7 km/h (2 Bft) W-NW 284 0 min 1,3 C 1,2 C 17,7 km/h (3 Bft)
16.12.2017 14:45 3,3 C 87 % 1007,2 hPa 0,0 mm 6,2 km/h (2 Bft) W 263 0 min 1,3 C 1,7 C 16,1 km/h (3 Bft)
16.12.2017 14:30 3,3 C 87 % 1007,1 hPa 0,0 mm 7,6 km/h (2 Bft) W 272 0 min 1,3 C 1,3 C 16,1 km/h (3 Bft)
16.12.2017 14:15 3,2 C 87 % 1007,0 hPa 0,0 mm 9,1 km/h (2 Bft) W 281 0 min 1,2 C 0,7 C 20,9 km/h (4 Bft)
16.12.2017 14:00 3,1 C 89 % 1007,0 hPa 0,0 mm 8,0 km/h (2 Bft) W-NW 285 0 min 1,5 C 0,9 C 24,1 km/h (4 Bft)
16.12.2017 13:45 2,8 C 90 % 1007,1 hPa 0,0 mm 4,8 km/h (1 Bft) W 267 0 min 1,3 C 1,7 C 14,5 km/h (3 Bft)
16.12.2017 13:30 2,8 C 90 % 1006,9 hPa 0,0 mm 5,9 km/h (2 Bft) S-SW 192 0 min 1,3 C 1,2 C 14,5 km/h (3 Bft)
16.12.2017 13:15 2,8 C 90 % 1006,8 hPa 0,0 mm 5,7 km/h (1 Bft) W-NW 284 0 min 1,3 C 1,3 C 19,3 km/h (3 Bft)
16.12.2017 13:00 2,9 C 89 % 1006,7 hPa 0,0 mm 7,5 km/h (2 Bft) W-SW 245 0 min 1,3 C 0,8 C 16,1 km/h (3 Bft)
16.12.2017 12:45 2,9 C 89 % 1006,6 hPa 0,0 mm 6,2 km/h (2 Bft) W-SW 258 0 min 1,3 C 1,2 C 16,1 km/h (3 Bft)
16.12.2017 12:30 3,0 C 89 % 1006,5 hPa 0,0 mm 7,6 km/h (2 Bft) W 281 0 min 1,4 C 0,9 C 17,7 km/h (3 Bft)
16.12.2017 12:15 3,0 C 90 % 1006,3 hPa 0,0 mm 9,0 km/h (2 Bft) W-NW 282 0 min 1,5 C 0,5 C 16,1 km/h (3 Bft)
16.12.2017 12:00 2,8 C 90 % 1006,3 hPa 0,0 mm 9,3 km/h (2 Bft) W-SW 248 15 min 1,3 C 0,2 C 19,3 km/h (3 Bft)
16.12.2017 11:45 2,8 C 91 % 1006,3 hPa 0,0 mm 10,9 km/h (2 Bft) W-NW 287 0 min 1,5 C -0,2 C 20,9 km/h (4 Bft)
16.12.2017 11:30 2,7 C 92 % 1006,2 hPa 0,0 mm 7,5 km/h (2 Bft) W 279 0 min 1,5 C 0,6 C 16,1 km/h (3 Bft)
16.12.2017 11:15 2,2 C 93 % 1006,0 hPa 0,0 mm 1,5 km/h (1 Bft) W-NW 282 15 min 1,2 C 2,2 C 12,9 km/h (3 Bft)
16.12.2017 11:00 2,1 C 94 % 1005,8 hPa 0,0 mm 0,3 km/h (0 Bft) SW 222 0 min 1,2 C 2,1 C 4,8 km/h (1 Bft)
16.12.2017 10:45 1,9 C 94 % 1005,8 hPa 0,0 mm 0,0 km/h (0 Bft) SW 222 0 min 1,0 C 1,9 C 1,6 km/h (1 Bft)
16.12.2017 10:30 1,8 C 94 % 1005,6 hPa 0,0 mm 0,6 km/h (0 Bft) SW 222 0 min 0,9 C 1,8 C 4,8 km/h (1 Bft)
16.12.2017 10:15 1,6 C 95 % 1005,4 hPa 0,0 mm 0,1 km/h (0 Bft) SW 222 0 min 0,9 C 1,6 C 3,2 km/h (1 Bft)
16.12.2017 10:00 1,4 C 94 % 1005,1 hPa 0,0 mm 0,6 km/h (0 Bft) SW 222 0 min 0,5 C 1,4 C 4,8 km/h (1 Bft)
16.12.2017 09:45 1,2 C 95 % 1004,9 hPa 0,0 mm 0,9 km/h (0 Bft) SW 222 0 min 0,5 C 1,2 C 6,4 km/h (2 Bft)
16.12.2017 09:30 1,1 C 95 % 1004,7 hPa 0,0 mm 0,0 km/h (0 Bft) S-SO 162 0 min 0,4 C 1,1 C 0,0 km/h (0 Bft)
16.12.2017 09:15 1,0 C 95 % 1004,5 hPa 0,0 mm 0,1 km/h (0 Bft) S-SO 162 0 min 0,3 C 1,0 C 4,8 km/h (1 Bft)
16.12.2017 09:00 0,9 C 95 % 1004,4 hPa 0,0 mm 1,6 km/h (1 Bft) S-SO 163 0 min 0,2 C 0,9 C 6,4 km/h (2 Bft)
16.12.2017 08:45 0,9 C 95 % 1004,2 hPa 0,0 mm 1,5 km/h (1 Bft) S-SO 155 0 min 0,2 C 0,9 C 4,8 km/h (1 Bft)
16.12.2017 08:30 0,8 C 95 % 1004,0 hPa 0,0 mm 1,8 km/h (1 Bft) S-SO 150 0 min 0,1 C 0,8 C 8,0 km/h (2 Bft)
16.12.2017 08:15 0,6 C 95 % 1003,7 hPa 0,0 mm 2,0 km/h (1 Bft) S-SW 212 0 min -0,1 C 0,6 C 8,0 km/h (2 Bft)
16.12.2017 08:00 0,4 C 95 % 1003,6 hPa 0,0 mm 0,0 km/h (0 Bft) S-SO 152 0 min -0,3 C 0,4 C 1,6 km/h (1 Bft)
16.12.2017 07:45 0,5 C 95 % 1003,5 hPa 0,0 mm 0,5 km/h (0 Bft) S-SO 152 0 min -0,2 C 0,5 C 4,8 km/h (1 Bft)
16.12.2017 07:30 0,5 C 95 % 1003,3 hPa 0,0 mm 0,2 km/h (0 Bft) S-SO 152 0 min -0,2 C 0,5 C 3,2 km/h (1 Bft)
16.12.2017 07:15 0,6 C 95 % 1003,1 hPa 0,0 mm 0,1 km/h (0 Bft) S-SO 151 0 min -0,1 C 0,6 C 3,2 km/h (1 Bft)
16.12.2017 07:00 0,7 C 95 % 1003,0 hPa 0,0 mm 0,3 km/h (0 Bft) S-SO 152 0 min -0,0 C 0,7 C 3,2 km/h (1 Bft)
16.12.2017 06:45 0,6 C 95 % 1002,9 hPa 0,0 mm 1,0 km/h (0 Bft) S-SO 151 0 min -0,1 C 0,6 C 4,8 km/h (1 Bft)
16.12.2017 06:30 0,5 C 95 % 1002,8 hPa 0,0 mm 1,8 km/h (1 Bft) S-SO 151 0 min -0,2 C 0,5 C 4,8 km/h (1 Bft)
16.12.2017 06:15 0,6 C 95 % 1002,7 hPa 0,0 mm 2,3 km/h (1 Bft) S-SO 151 0 min -0,1 C 0,6 C 6,4 km/h (2 Bft)
16.12.2017 06:00 0,6 C 95 % 1002,5 hPa 0,0 mm 0,5 km/h (0 Bft) S-SO 150 0 min -0,1 C 0,6 C 4,8 km/h (1 Bft)
16.12.2017 05:45 0,6 C 95 % 1002,5 hPa 0,0 mm 0,2 km/h (0 Bft) S-SO 150 0 min -0,1 C 0,6 C 3,2 km/h (1 Bft)
16.12.2017 05:30 0,6 C 95 % 1002,4 hPa 0,0 mm 0,2 km/h (0 Bft) S-SO 150 0 min -0,1 C 0,6 C 3,2 km/h (1 Bft)
16.12.2017 05:15 0,4 C 95 % 1002,4 hPa 0,0 mm 0,9 km/h (0 Bft) S-SO 150 0 min -0,3 C 0,4 C 6,4 km/h (2 Bft)
16.12.2017 05:00 0,5 C 95 % 1002,2 hPa 0,0 mm 1,1 km/h (1 Bft) S-SO 148 0 min -0,2 C 0,5 C 4,8 km/h (1 Bft)
16.12.2017 04:45 0,5 C 95 % 1002,0 hPa 0,0 mm 0,5 km/h (0 Bft) S-SO 147 0 min -0,2 C 0,5 C 3,2 km/h (1 Bft)
16.12.2017 04:30 0,5 C 95 % 1001,8 hPa 0,0 mm 0,4 km/h (0 Bft) SO 146 0 min -0,2 C 0,5 C 4,8 km/h (1 Bft)
16.12.2017 04:15 0,5 C 95 % 1001,6 hPa 0,0 mm 3,6 km/h (1 Bft) SO 146 0 min -0,2 C 0,5 C 6,4 km/h (2 Bft)
16.12.2017 04:00 0,4 C 95 % 1001,5 hPa 0,0 mm 1,3 km/h (1 Bft) SO 145 0 min -0,3 C 0,4 C 6,4 km/h (2 Bft)
16.12.2017 03:45 0,3 C 95 % 1001,6 hPa 0,0 mm 0,0 km/h (0 Bft) SO 145 0 min -0,4 C 0,3 C 0,0 km/h (0 Bft)
16.12.2017 03:30 0,2 C 95 % 1001,5 hPa 0,0 mm 0,0 km/h (0 Bft) SO 145 0 min -0,5 C 0,2 C 0,0 km/h (0 Bft)
16.12.2017 03:15 0,2 C 95 % 1001,4 hPa 0,0 mm 0,0 km/h (0 Bft) SO 145 0 min -0,5 C 0,2 C 1,6 km/h (1 Bft)
16.12.2017 03:00 0,2 C 95 % 1001,4 hPa 0,0 mm 0,0 km/h (0 Bft) SO 146 0 min -0,5 C 0,2 C 1,6 km/h (1 Bft)
16.12.2017 02:45 0,2 C 95 % 1001,2 hPa 0,0 mm 0,0 km/h (0 Bft) SO 145 0 min -0,5 C 0,2 C 0,0 km/h (0 Bft)
16.12.2017 02:30 0,1 C 95 % 1001,0 hPa 0,0 mm 0,0 km/h (0 Bft) SO 145 0 min -0,6 C 0,1 C 0,0 km/h (0 Bft)
16.12.2017 02:15 -0,2 C 95 % 1000,9 hPa 0,0 mm 0,7 km/h (0 Bft) SO 145 0 min -0,9 C -0,2 C 4,8 km/h (1 Bft)
16.12.2017 02:00 -0,4 C 95 % 1000,8 hPa 0,0 mm 1,4 km/h (1 Bft) SO 145 0 min -1,1 C -0,4 C 4,8 km/h (1 Bft)
16.12.2017 01:45 -0,5 C 95 % 1000,6 hPa 0,0 mm 2,9 km/h (1 Bft) SO 142 0 min -1,2 C -0,5 C 6,4 km/h (2 Bft)
16.12.2017 01:30 -0,6 C 95 % 1000,5 hPa 0,0 mm 1,0 km/h (0 Bft) SO 138 0 min -1,3 C -0,6 C 4,8 km/h (1 Bft)
16.12.2017 01:15 -0,6 C 95 % 1000,5 hPa 0,0 mm 0,9 km/h (0 Bft) SO 137 0 min -1,3 C -0,6 C 3,2 km/h (1 Bft)
16.12.2017 01:00 -0,7 C 95 % 1000,4 hPa 0,0 mm 0,0 km/h (0 Bft) SO 137 0 min -1,4 C -0,7 C 0,0 km/h (0 Bft)
16.12.2017 00:45 -0,7 C 95 % 1000,5 hPa 0,0 mm 0,0 km/h (0 Bft) SO 137 0 min -1,4 C -0,7 C 1,6 km/h (1 Bft)
16.12.2017 00:30 -0,7 C 95 % 1000,5 hPa 0,0 mm 1,2 km/h (1 Bft) SO 137 0 min -1,4 C -0,7 C 4,8 km/h (1 Bft)
16.12.2017 00:15 -0,8 C 95 % 1000,4 hPa 0,0 mm 3,5 km/h (1 Bft) SO 137 0 min -1,5 C -0,8 C 8,0 km/h (2 Bft)
16.12.2017 00:00 -1,1 C 95 % 1000,3 hPa 0,0 mm 0,9 km/h (0 Bft) S-SO 150 0 min -1,8 C -1,1 C 6,4 km/h (2 Bft)
15.12.2017 23:45 -1,2 C 95 % 1000,2 hPa 0,0 mm 1,6 km/h (1 Bft) S-SO 155 0 min -1,9 C -1,2 C 6,4 km/h (2 Bft)
15.12.2017 23:30 -1,2 C 95 % 1000,1 hPa 0,0 mm 1,6 km/h (1 Bft) S-SO 155 0 min -1,9 C -1,2 C 4,8 km/h (1 Bft)
15.12.2017 23:15 -1,2 C 94 % 999,9 hPa 0,0 mm 0,0 km/h (0 Bft) S-SO 155 0 min -2,0 C -1,2 C 3,2 km/h (1 Bft)
15.12.2017 23:00 -1,1 C 94 % 999,8 hPa 0,0 mm 0,0 km/h (0 Bft) S-SO 162 0 min -1,9 C -1,1 C 1,6 km/h (1 Bft)
15.12.2017 22:45 -0,8 C 94 % 999,5 hPa 0,0 mm 0,1 km/h (0 Bft) S-SO 162 0 min -1,6 C -0,8 C 3,2 km/h (1 Bft)
15.12.2017 22:30 -0,7 C 95 % 999,3 hPa 0,0 mm 0,0 km/h (0 Bft) S-SO 162 0 min -1,4 C -0,7 C 0,0 km/h (0 Bft)
15.12.2017 22:15 -0,7 C 95 % 999,2 hPa 0,0 mm 0,6 km/h (0 Bft) S-SO 162 0 min -1,4 C -0,7 C 3,2 km/h (1 Bft)
15.12.2017 22:00 -0,8 C 94 % 999,1 hPa 0,0 mm 2,3 km/h (1 Bft) S-SO 162 0 min -1,6 C -0,8 C 4,8 km/h (1 Bft)
15.12.2017 21:45 -0,9 C 94 % 999,1 hPa 0,0 mm 1,2 km/h (1 Bft) S-SO 162 0 min -1,7 C -0,9 C 4,8 km/h (1 Bft)
15.12.2017 21:30 -0,9 C 94 % 999,1 hPa 0,0 mm 0,1 km/h (0 Bft) S-SO 162 0 min -1,7 C -0,9 C 3,2 km/h (1 Bft)
15.12.2017 21:15 -0,9 C 93 % 998,8 hPa 0,0 mm 2,6 km/h (1 Bft) S-SO 162 0 min -1,9 C -0,9 C 6,4 km/h (2 Bft)
15.12.2017 21:00 -0,8 C 93 % 998,5 hPa 0,0 mm 1,0 km/h (0 Bft) S-SO 162 0 min -1,8 C -0,8 C 4,8 km/h (1 Bft)
15.12.2017 20:45 -0,5 C 93 % 998,4 hPa 0,0 mm 0,9 km/h (0 Bft) S-SO 162 0 min -1,5 C -0,5 C 3,2 km/h (1 Bft)
15.12.2017 20:30 -0,3 C 93 % 998,4 hPa 0,0 mm 0,6 km/h (0 Bft) S-SO 162 0 min -1,3 C -0,3 C 3,2 km/h (1 Bft)
15.12.2017 20:15 -0,2 C 92 % 998,3 hPa 0,0 mm 0,0 km/h (0 Bft) S-SO 162 0 min -1,3 C -0,2 C 0,0 km/h (0 Bft)
15.12.2017 20:00 -0,1 C 92 % 998,1 hPa 0,0 mm 0,1 km/h (0 Bft) S-SO 162 0 min -1,2 C -0,1 C 1,6 km/h (1 Bft)
15.12.2017 19:45 0,1 C 91 % 997,9 hPa 0,0 mm 1,4 km/h (1 Bft) S-SO 162 0 min -1,2 C 0,1 C 4,8 km/h (1 Bft)
15.12.2017 19:30 0,4 C 91 % 997,8 hPa 0,0 mm 0,5 km/h (0 Bft) S-SO 162 0 min -0,9 C 0,4 C 3,2 km/h (1 Bft)
15.12.2017 19:15 0,6 C 91 % 997,6 hPa 0,0 mm 0,9 km/h (0 Bft) S-SO 162 0 min -0,7 C 0,6 C 4,8 km/h (1 Bft)
15.12.2017 19:00 0,9 C 90 % 997,5 hPa 0,0 mm 1,0 km/h (0 Bft) S-SO 162 0 min -0,6 C 0,9 C 4,8 km/h (1 Bft)
15.12.2017 18:45 1,2 C 89 % 997,4 hPa 0,0 mm 0,0 km/h (0 Bft) S-SO 162 0 min -0,4 C 1,2 C 1,6 km/h (1 Bft)
15.12.2017 18:30 1,4 C 89 % 997,1 hPa 0,0 mm 0,0 km/h (0 Bft) S-SO 162 0 min -0,2 C 1,4 C 0,0 km/h (0 Bft)
15.12.2017 18:15 1,7 C 88 % 997,0 hPa 0,0 mm 0,0 km/h (0 Bft) S-SO 162 0 min -0,1 C 1,7 C 0,0 km/h (0 Bft)
15.12.2017 18:00 1,8 C 88 % 996,8 hPa 0,0 mm 0,0 km/h (0 Bft) S-SO 162 0 min 0,0 C 1,8 C 1,6 km/h (1 Bft)
15.12.2017 17:45 2,1 C 87 % 996,7 hPa 0,0 mm 0,5 km/h (0 Bft) S-SO 162 0 min 0,2 C 2,1 C 3,2 km/h (1 Bft)
15.12.2017 17:30 2,2 C 86 % 996,5 hPa 0,0 mm 0,4 km/h (0 Bft) S-SO 162 0 min 0,1 C 2,2 C 3,2 km/h (1 Bft)
15.12.2017 17:15 2,6 C 85 % 996,4 hPa 0,0 mm 0,0 km/h (0 Bft) S-SO 162 0 min 0,3 C 2,6 C 1,6 km/h (1 Bft)
15.12.2017 17:00 2,7 C 85 % 996,2 hPa 0,0 mm 0,9 km/h (0 Bft) S-SO 162 0 min 0,4 C 2,7 C 3,2 km/h (1 Bft)
15.12.2017 16:45 2,8 C 84 % 996,0 hPa 0,0 mm 0,4 km/h (0 Bft) S-SO 162 0 min 0,4 C 2,8 C 4,8 km/h (1 Bft)
15.12.2017 16:30 2,9 C 84 % 995,9 hPa 0,0 mm 3,8 km/h (1 Bft) S-SO 162 0 min 0,5 C 2,9 C 6,4 km/h (2 Bft)
15.12.2017 16:15 3,1 C 83 % 995,8 hPa 0,0 mm 2,9 km/h (1 Bft) S-SO 163 0 min 0,5 C 3,1 C 6,4 km/h (2 Bft)
15.12.2017 16:00 3,3 C 83 % 995,6 hPa 0,0 mm 2,2 km/h (1 Bft) S-SO 165 0 min 0,7 C 3,3 C 6,4 km/h (2 Bft)
_ Min-Zeit 23:15 16:00 16:00 - 17:15 - - - 23:15 23:15 18:15
Minimum _ -1,3 C 83 % 995,6 hPa - 0,0 km/h (0 Bft) - - - -2,0 C -1,2 C 0,0 km/h (0 Bft)
_ Max-Zeit 16:00 22:15 15:30 16:00 11:45 - - 11:15 11:30 16:00 14:00
Maximum _ 3,4 C 95 % 1007,7 hPa 0,0 mm 10,9 km/h
W-NW (2 Bft)
- - 15 min 1,5 C 3,3 C 24,1 km/h
SW (4 Bft)
Durchschnitt _ 1,1 C 92 % 1001,4 hPa #0,0 mm 2,1 km/h (1 Bft) S-SO - #30 min. -0,1 C 0,8 C 6,4 km/h (2 Bft)